Regional Weather Roundup
Issued by NWS Nashville, TN

Home | Current Version | Previous Version | Text Only | Print | Product List | Glossary On
Versions: 1 2 3 4 5 6 7 8 9 10 11 12 13 14 15 16 17 18 19 20 21 22 23 24 25 26 27 28 29 30 31 32 33 34 35 36 37 38 39 40 41 42 43 44 45 46 47 48 49 50
000
ASUS44 KOHX 211215
RWROHX
MIDDLE TENNESSEE HOURLY WEATHER ROUNDUP
NATIONAL WEATHER SERVICE NASHVILLE TN
700 AM CDT TUE OCT 21 2014

NOTE: "FAIR" INDICATES FEW OR NO CLOUDS BELOW 12,000 FEET WITH
NO SIGNIFICANT WEATHER AND/OR OBSTRUCTIONS TO VISIBILITY.

* THESE REPORTS ARE NOT UNDER NWS QUALITY CONTROL AND MAY NOT
  REPORT WEATHER SUCH AS PRECIPITATION AND FOG.


TNZ005>011-023>034-057-059-062>066-078-080-211300
...NORTHERN MIDDLE TENNESSEE...

CITY           SKY/WX    TMP DP  RH WIND       PRES   REMARKS
CLARKSVILLE    CLEAR     47  46  97 W3        30.04R FOG
CROSSVILLE     CLEAR     48  45  89 W3        30.03R
NASHVILLE      CLEAR     47  45  93 CALM      30.04R
SMYRNA         CLEAR     41  41 100 CALM      30.05S
SPARTA         CLEAR     39  39 100 CALM      30.03R
$$
TNZ056-058-060-061-075>077-079-093>097-211300
...SOUTHERN MIDDLE TENNESSEE...

CITY           SKY/WX    TMP DP  RH WIND       PRES   REMARKS
COLUMBIA       CLOUDY   N/A N/A N/A CALM      30.03R VSB 0
FAYETTEVILLE   CLEAR     45  45 100 MISG      30.04S
MCMINNVILLE    MOCLDY    43  43 100 CALM      30.04R
SHELBYVILLE    CLEAR     45  45 100 CALM      30.05R
TULLAHOMA      CLEAR     41  39  93 CALM      30.04S
WINCHESTER     CLEAR     43  43 100 CALM      30.04S
$$


...KEY TO REMARKS...
VSB - VISIBILITY IN MILES
WCI - WIND CHILL INDEX
HX  - HEAT INDEX



USA.gov is the U.S. government's official web portal to all federal, state and local government web resources and services.